Regional Weather Roundup
Issued by NWS

Home | Current Version | Previous Version | Text Only | Print | Product List | Glossary On
Versions: 1 2 3 4 5 6 7 8 9 10 11 12 13 14 15 16 17 18 19 20 21 22 23 24 25 26 27 28 29 30 31 32 33 34 35 36 37 38 39 40 41 42 43 44 45 46 47 48 49 50
000
ASCA44 KEWX 300020
RWRMX

LATIN AMERICA AND CARIBBEAN REGIONAL WEATHER ROUNDUP
NATIONAL WEATHER SERVICE AUSTIN/SAN ANTONIO TX
700 PM CDT THU SEP 29 2016

NOTE: "FAIR" INDICATED FEW OR NO CLOUDS BELOW 12,000 FEET WITH NO
SIGNIFICANT WEATHER AND/OR OBSTRUCTIONS TO VISIBILITY.

BAJA CALIFORNIA

CITY           SKY/WX    TMP DP  RH WIND       PRES   REMARKS
LORETO         MOSUNNY   88  77  70 NE9       29.90  HX 100
LA PAZ         PTSUNNY   88  70  55 N9        29.93R HX  92
MEXICALI       MOSUNNY   97  48  19 CALM      29.93F HX  93
S.J. DEL CABO  MOSUNNY   88  64  45 E9        29.94S
TIJUANA        PTSUNNY   81  57  44 NW7       30.03R

NORTHWESTERN MEXICO

CITY           SKY/WX    TMP DP  RH WIND       PRES   REMARKS
CULIACAN       CLOUDY    86  75  70 CALM      29.92S HX  95
DURANGO        LGT RAIN  63  63 100 W12       30.33R
GUAYMAS        MOSUNNY   90  70  51 W10       29.87F HX  95
HERMOSILLO     MOSUNNY   97  70  41 SW13      29.94F HX 103
CD. JUAREZ     MOSUNNY   86  50  28 SE12      30.16S
LOS MOCHIS     PTSUNNY   86  72  62 W16       29.92S HX  92
OBREGON        MOSUNNY   93  66  40 W14       29.89R HX  96

NORTHEASTERN MEXICO

CITY           SKY/WX    TMP DP  RH WIND       PRES   REMARKS
CHIHUAHUA      MOSUNNY   75  57  53 NE8       30.27S
MATAMOROS      MOCLDY    82  73  74 NE12      30.07R
MONCLOVA       CLOUDY    79  68  69 CALM      30.17S
MONTERREY      DRIZZLE   75  68  78 S9        30.13S
NUEVO LAREDO   PTCLDY    90  61  37 CALM      30.09S
PIEDRAS NEGRAS PTCLDY    90  66  45 E7        30.15  HX  92
REYNOSA        PTCLDY    86  61  42 E12       30.05S
SALTILLO       CLOUDY    63  57  82 N12       30.33S
TORREON        MOCLDY    81  64  57 CALM      30.18R
CD. VICTORIA   MOCLDY    77  75  94 N5        30.09F

WESTERN MEXICO

CITY           SKY/WX    TMP DP  RH WIND       PRES   REMARKS
AGUASCALIENTES CLOUDY    66  59  77 W5        30.31S
COLIMA           N/A    N/A N/A N/A MISG        N/A
DEL BAJIO      MOCLDY    73  57  56 E14       30.32R
GUADALAJARA    CLOUDY    70  61  73 SE7G18    30.20R
MANZANILLO     PTSUNNY   86  77  74 SE9       29.90R HX  97
MAZATLAN       PTSUNNY   86  79  79 NW10      29.92R HX  99
P. VALLARTA    CLOUDY    79  77  94 S5        29.95R
URUAPAN        MOCLDY    70  64  83 CALM      30.22R THUNDER
ZACATECAS      MOCLDY    68  52  56 E6        30.35S

CENTRAL MEXICO

CITY           SKY/WX    TMP DP  RH WIND       PRES   REMARKS
CUERNAVACA     RAIN      63  61  94 NE23G41   30.19R
MEXICO CITY    LGT RAIN  66  55  68 NE13      30.39R
MORELIA        CLOUDY    61  59  94 S3        30.26S
POZA RICA      MOCLDY    82  75  78 N7        30.07R
PUEBLA         LGT RAIN  55  54  94 W8        30.40S
QUERETARO      MOCLDY    68  57  68 NE23      30.36R
S. LUIS POTOSI CLOUDY    63  61  94 E9        30.34R
TAMPICO        MOCLDY    82  75  78 NE12      30.03S
TOLUCA         TSTM      48  46  93 W9        30.47R WCI  44

SOUTHERN MEXICO

CITY           SKY/WX    TMP DP  RH WIND       PRES   REMARKS
ACAPULCO       CLOUDY    84  77  79 S3        29.90R HX  94
B. DE HUATULCO   N/A    N/A N/A N/A MISG        N/A
OAXACA         CLOUDY    73  54  49 N14       30.24R
P. ESCONDIDO   CLOUDY    86  77  74 W5        30.00R HX  97
VERACRUZ       MOCLDY    82  77  83 NE12      29.99R HX  91
ZIHUATANEJO    CLOUDY    86  77  74 NE3       29.92R HX  97

YUCATAN PENINSULA

CITY           SKY/WX    TMP DP  RH WIND       PRES   REMARKS
CAMPECHE       LGT RAIN  82  77  83 E6        29.98R HX  91
CANCUN         MOCLDY    82  79  89 NE2       30.04R HX  93
CHETUMAL       MOCLDY    86  73  66 SE12      29.98R HX  93
CD. DEL CARMEN PTCLDY    86  77  74 N10       29.95R HX  97
COZUMEL        MOCLDY    84  79  84 MISG      30.02R HX  96
MERIDA         MOCLDY    82  73  74 E13       30.03R
MINATITLAN     MOCLDY    82  75  78 N9        29.95R
TAPACHULA      CLOUDY    79  75  89 CALM      29.89R
TUX. GUTIERREZ MOCLDY    79  70  73 W10       29.97R
VILLAHERMOSA   PTCLDY    84  77  79 N6        29.97R HX  94

CENTRAL AMERICA

CITY           SKY/WX    TMP DP  RH WIND       PRES   REMARKS
BELIZE CITY    PTCLDY    84  79  84 E6        30.00R HX  96
MANAGUA        PTCLDY    86  73  66 E9        29.86R HX  93

CARIBBEAN

CITY           SKY/WX    TMP DP  RH WIND       PRES   REMARKS
CURACAO        PTCLDY    79  77  94 W2        29.77F
KINGSTON       PTCLDY    88  79  74 S10       29.92R HX 102
NASSAU         MOCLDY    84  79  84 S3        30.06S THUNDER HX  96
SAN JUAN       PTCLDY    82  79  89 E16       29.97  HX  93
SANTO DOMINGO  PTCLDY    82  77  83 NE6       29.94R HX  91
ST. CROIX      CLEAR     81  75  83 NE10      29.96S
ST. KITTS      PTCLDY    82  77  83 E10       29.97S HX  91
ST. MAARTEN    PTCLDY    84  77  79 E13       29.97S HX  94
ST. THOMAS     CLEAR     84  77  79 E21       29.96F HX  94

$$




USA.gov is the U.S. government's official web portal to all federal, state and local government web resources and services.